Regional Weather Roundup
Issued by NWS Albany, NY

Home | Current Version | Previous Version | Text Only | Print | Product List | Glossary On
Versions: 1 2 3 4 5 6 7 8 9 10 11 12 13 14 15 16 17 18 19 20 21 22 23 24 25 26 27 28 29 30 31 32 33 34 35 36 37 38 39 40 41 42 43 44 45 46 47 48 49 50
333
ASUS41 KALY 260810
RWRALY

NEW YORK STATE HOURLY WEATHER ROUNDUP
NATIONAL WEATHER SERVICE ALBANY NY
300 AM EST SUN FEB 26 2017

NOTE: "FAIR" INDICATES FEW OR NO CLOUDS BELOW 12,000 FEET WITH NO
SIGNIFICANT WEATHER AND/OR NO OBSTRUCTIONS TO VISIBILITY.

NYZ032-033-038>043-046>054-057>066-NYZ062>081-082-084-260900-
EAST


CITY           SKY/WX    TMP DP  RH WIND       PRES   REMARKS
ALBANY         CLOUDY    35  24  64 W12G26    29.72R WCI  27
GLENS FALLS    CLOUDY    36  25  64 SW9       29.66R WCI  29
POUGHKEEPSIE   CLEAR     37  22  54 W13       29.74R WCI  29
MONTGOMERY     MOCLDY    37  21  52 W12       29.74R WCI  29
WHITE PLAINS   MOCLDY    39  26  59 NW17G26   29.72R WCI  30
ISLIP          CLEAR     40  28  62 NW21G26   29.71R WCI  30
NEW YORK CITY  MOCLDY    44  30  57 NW16G25   29.74R
CENTRAL PARK   CLOUDY    41  30  65 W9G20     29.77R
$$

NYZ005>009-017-018-044>046-055-056-260900-
CENTRAL


CITY           SKY/WX    TMP DP  RH WIND       PRES   REMARKS
FULTON         FLURRIES  31  23  72 W16G24    29.79R WCI  20
SYRACUSE       FLURRIES  31  19  61 W18       29.79R WCI  19
ROME           CLOUDY    30  26  85 W17       29.77R WCI  18
ELMIRA         FLURRIES  30  18  60 W16G26    29.83R WCI  19
BINGHAMTON     LGT SNOW  26  20  77 W16G23    29.75R WCI  14
MONTICELLO     PTCLDY   N/A N/A N/A NW16G31   29.73R
$$

NYZ026>034-041>043-087-260900-
NORTH


CITY           SKY/WX    TMP DP  RH WIND       PRES   REMARKS
WATERTOWN      CLOUDY    30  21  69 W20G30    29.75R WCI  17
FORT DRUM      NOT AVBL
OGDENSBURG     FAIR      31  20  64 W16G22    29.69R WCI  20
MASSENA        MOCLDY    32  22  66 W17G25    29.66R WCI  21
SARANAC LAKE   FLURRIES  26  22  84 W15G22    29.57R WCI  14
PLATTSBURGH    MIX PCPN  36  23  59 W13G21    29.60R WCI  27
$$

NYZ001>004-010>016-019>021-085-260900-
WEST


CITY           SKY/WX    TMP DP  RH WIND       PRES   REMARKS
NIAGARA FALLS  MIX PCPN  30  18  60 W20G25    29.87R WCI  17
BUFFALO        CLOUDY    28  17  63 W21G28    29.87R WCI  15
DUNKIRK        MIX PCPN  28  16  60 W16G29    29.92R WCI  16
JAMESTOWN      CLOUDY    21  16  79 W8        29.86S WCI  12
WELLSVILLE     CLOUDY    24  13  62 W22G33    29.81R WCI   9
ROCHESTER      CLOUDY    30  19  63 W18G25    29.84R WCI  18
PENN YAN       CLOUDY    29  15  56 W14G23    29.82R WCI  18
$$

             KEY
       WCI = WIND CHILL INDEX
       VSB = VISIBILITY
       HX  = HEAT INDEX
$$




USA.gov is the U.S. government's official web portal to all federal, state and local government web resources and services.